McComb, MS

9:43 PM CDT on July 25, 2017 (GMT -0500)
McComb-Pike County-Lewis

Weather History for KMCB - March, 2013

Change the Weather History Date:

Monday, March 11, 2013

  Actual Average Record
Temperature  
Mean Temperature 50 °F -  
Max Temperature 59 °F 70 °F 86 °F (1967)
Min Temperature 39 °F 45 °F 26 °F (1998)
Degree Days  
Heating Degree Days 15    
Moisture  
Dew Point 44 °F    
Average Humidity 83    
Maximum Humidity 100    
Minimum Humidity 45    
Precipitation  
Precipitation 1.52 in - - ()
Sea Level Pressure  
Sea Level Pressure 29.94 in    
Wind  
Wind Speed 10 mph (NW)    
Max Wind Speed 21 mph    
Max Gust Speed 30 mph    
Visibility 8 miles    
Events Rain    
Averages and records for this station are not official NWS values.
T = Trace of Precipitation, MM = Missing Value Source: NWS Daily Summary

Daily Weather History Graph

Daily Weather History Graph

Search for Another Location

Airport or City:

Trip Planner

Search our weather history database for the weather conditions in past years. The results will help you decide how hot, cold, wet, or windy it might be!

Date:

Astronomy

Mar. 11, 2013 Rise Set
Actual Time 7:16 AM CDT 7:07 PM CDT
Civil Twilight 6:52 AM CDT 7:31 PM CDT
Nautical Twilight 6:24 AM CDT 7:59 PM CDT
Astronomical Twilight 5:56 AM CDT 8:27 PM CDT
Moon 6:52 AM CDT (3/11) 7:15 PM CDT (3/11)
Length of Visible Light 12h 39m
Length of Day
11h 51m
Waning Crescent, 0% of the Moon is Illuminated
Mar 11
Waning Crescent
Mar 11
New
Mar 19
First Quarter
Mar 27
Full
Apr 2
Last Quarter

Hourly Weather History & Observations

Time (CDT) Temp. Windchill Dew Point Humidity Pressure Visibility Wind Dir Wind Speed Gust Speed Precip Events Conditions
12:07 AM 57.2 °F - 55.4 °F 94% 29.91 in 6.0 mi WNW 12.7 mph - 0.05 in Rain Light Rain
12:53 AM 54.0 °F - 53.1 °F 97% 29.93 in 6.0 mi NW 10.4 mph - 0.11 in Rain Rain
1:39 AM 53.6 °F - 51.8 °F 94% 29.92 in 9.0 mi NNW 9.2 mph - 0.10 in Rain Light Rain
1:46 AM 53.6 °F - 51.8 °F 94% 29.91 in 7.0 mi NNW 8.1 mph - 0.12 in Rain Light Rain
1:53 AM 53.1 °F - 52.0 °F 96% 29.90 in 7.0 mi NNW 8.1 mph - 0.12 in Rain Light Rain
2:30 AM 53.6 °F - 51.8 °F 94% 29.90 in 4.0 mi North 4.6 mph - 0.06 in Rain Rain
2:53 AM 53.1 °F - 52.0 °F 96% 29.89 in 5.0 mi NNW 6.9 mph - 0.10 in Rain Rain
3:15 AM 51.8 °F - 51.8 °F 100% 29.90 in 3.0 mi NNW 9.2 mph - 0.13 in Rain Heavy Rain
3:29 AM 51.8 °F - 51.8 °F 100% 29.90 in 8.0 mi NW 8.1 mph - 0.14 in Rain Light Rain
3:53 AM 52.0 °F - 50.0 °F 93% 29.90 in 4.0 mi WNW 20.7 mph 29.9 mph 0.19 in Rain Rain
4:09 AM 48.2 °F - 46.4 °F 93% 29.89 in 3.0 mi NNW 17.3 mph 26.5 mph 0.07 in Rain Heavy Rain
4:36 AM 46.4 °F 40.1 °F 44.6 °F 93% 29.90 in 7.0 mi NW 15.0 mph 23.0 mph 0.12 in Rain Rain
4:53 AM 46.0 °F 39.0 °F 44.1 °F 93% 29.93 in 2.5 mi NW 17.3 mph 23.0 mph 0.25 in Rain Heavy Rain
5:11 AM 46.4 °F 40.7 °F 44.6 °F 93% 29.92 in 3.0 mi NNW 12.7 mph - 0.12 in Rain Heavy Rain
5:32 AM 46.4 °F 41.1 °F 44.6 °F 93% 29.95 in 3.0 mi WNW 11.5 mph 25.3 mph 0.26 in Rain Heavy Rain
5:40 AM 44.6 °F 38.1 °F 44.6 °F 100% 29.95 in 2.5 mi NW 13.8 mph - 0.32 in Rain Heavy Rain
5:53 AM 45.0 °F 40.6 °F 44.1 °F 97% 29.96 in 2.5 mi West 8.1 mph - 0.40 in Rain Heavy Rain
6:05 AM 44.6 °F 37.4 °F 42.8 °F 93% 29.93 in 4.0 mi NW 16.1 mph - 0.05 in Rain Rain
6:45 AM 44.6 °F 38.8 °F 42.8 °F 93% 29.96 in 7.0 mi NW 11.5 mph - 0.13 in Rain Rain
6:53 AM 44.1 °F 38.6 °F 42.1 °F 93% 29.97 in 5.0 mi NW 10.4 mph - 0.15 in Rain Rain
7:53 AM 43.0 °F 40.3 °F 41.0 °F 93% 29.95 in 10.0 mi NW 4.6 mph - 0.08 in   Overcast
8:53 AM 43.0 °F - 41.0 °F 93% 29.96 in 10.0 mi Calm Calm - 0.06 in Rain Light Rain
9:53 AM 44.1 °F - 42.1 °F 93% 29.99 in 10.0 mi Calm Calm - 0.03 in Rain Light Rain
10:53 AM 44.1 °F 38.6 °F 41.0 °F 89% 29.96 in 10.0 mi NNW 10.4 mph - 0.03 in Rain Light Rain
11:27 AM 44.6 °F 39.7 °F 41.0 °F 87% 29.99 in 10.0 mi WNW 9.2 mph - 0.00 in   Mostly Cloudy
11:53 AM 46.0 °F 41.4 °F 41.0 °F 83% 29.98 in 10.0 mi WNW 9.2 mph - 0.00 in   Mostly Cloudy
12:02 PM 46.4 °F 44.3 °F 41.0 °F 81% 29.98 in 10.0 mi WNW 4.6 mph - N/A   Scattered Clouds
12:11 PM 46.4 °F 42.9 °F 41.0 °F 81% 29.98 in 10.0 mi West 6.9 mph - N/A   Mostly Cloudy
12:53 PM 50.0 °F - 42.1 °F 74% 29.96 in 10.0 mi Variable 5.8 mph - N/A   Mostly Cloudy
1:08 PM 51.8 °F - 41.0 °F 67% 29.95 in 10.0 mi Variable 5.8 mph - N/A   Partly Cloudy
1:53 PM 54.0 °F - 41.0 °F 62% 29.92 in 10.0 mi WNW 10.4 mph 18.4 mph N/A   Clear
2:53 PM 57.9 °F - 37.9 °F 47% 29.91 in 10.0 mi NW 13.8 mph - N/A   Clear
3:53 PM 57.9 °F - 37.0 °F 46% 29.91 in 10.0 mi NW 15.0 mph 20.7 mph N/A   Partly Cloudy
4:53 PM 57.0 °F - 36.0 °F 45% 29.91 in 10.0 mi NNW 15.0 mph 21.9 mph N/A   Clear
5:53 PM 57.0 °F - 36.0 °F 45% 29.91 in 10.0 mi NNW 10.4 mph - N/A   Clear
6:53 PM 53.1 °F - 35.1 °F 50% 29.94 in 10.0 mi NNW 8.1 mph - N/A   Clear
7:53 PM 48.0 °F - 37.0 °F 66% 29.97 in 10.0 mi NW 4.6 mph - N/A   Clear
8:53 PM 46.0 °F 43.1 °F 37.9 °F 73% 30.00 in 10.0 mi NNW 5.8 mph - N/A   Clear
9:53 PM 45.0 °F - 37.0 °F 74% 30.03 in 10.0 mi Calm Calm - N/A   Clear
11:53 PM 39.9 °F - 37.0 °F 89% 30.04 in 10.0 mi Calm Calm - N/A   Clear